TimeEST,TemperatureF,Dew PointF,Humidity,Sea Level PressureIn,VisibilityMPH,Wind Direction,Wind SpeedMPH,Gust SpeedMPH,PrecipitationIn,Events,Conditions,WindDirDegrees,DateUTC
12:51 AM,30.0,18.0,61,30.17,10.0,NW,15.0,-,N/A,,Mostly Cloudy,310,2013-01-03 05:51:00
1:51 AM,30.0,17.1,59,30.18,10.0,NW,11.5,-,N/A,,Mostly Cloudy,320,2013-01-03 06:51:00
2:51 AM,28.9,17.1,61,30.18,10.0,NW,15.0,-,N/A,,Mostly Cloudy,320,2013-01-03 07:51:00
3:51 AM,28.9,16.0,58,30.17,10.0,NNW,13.8,-,N/A,,Mostly Cloudy,330,2013-01-03 08:51:00
4:51 AM,28.0,16.0,61,30.17,10.0,NNW,11.5,-,N/A,,Mostly Cloudy,340,2013-01-03 09:51:00
5:51 AM,27.0,15.1,61,30.18,10.0,NNW,8.1,-,N/A,,Mostly Cloudy,330,2013-01-03 10:51:00
6:51 AM,26.1,15.1,63,30.19,10.0,NNW,12.7,-,N/A,,Mostly Cloudy,330,2013-01-03 11:51:00
7:51 AM,26.1,15.1,63,30.18,10.0,NNW,10.4,-,N/A,,Mostly Cloudy,330,2013-01-03 12:51:00
8:51 AM,26.1,15.1,63,30.19,10.0,NNW,9.2,-,N/A,,Mostly Cloudy,330,2013-01-03 13:51:00
9:51 AM,26.1,15.1,63,30.20,10.0,NNW,8.1,-,N/A,,Mostly Cloudy,330,2013-01-03 14:51:00
10:51 AM,27.0,15.1,61,30.18,10.0,NW,9.2,-,N/A,,Mostly Cloudy,310,2013-01-03 15:51:00
11:51 AM,28.9,14.0,54,30.15,10.0,NW,5.8,-,N/A,,Mostly Cloudy,320,2013-01-03 16:51:00
12:51 PM,30.9,12.9,47,30.11,10.0,West,6.9,-,N/A,,Scattered Clouds,270,2013-01-03 17:51:00
1:51 PM,32.0,12.0,44,30.09,10.0,WSW,10.4,17.3,N/A,,Scattered Clouds,250,2013-01-03 18:51:00
2:51 PM,33.1,12.0,42,30.08,10.0,Variable,5.8,-,N/A,,Partly Cloudy,0,2013-01-03 19:51:00
3:51 PM,33.1,12.0,42,30.07,10.0,West,10.4,17.3,N/A,,Partly Cloudy,260,2013-01-03 20:51:00
4:51 PM,33.1,12.9,43,30.08,10.0,West,13.8,-,N/A,,Partly Cloudy,260,2013-01-03 21:51:00
5:51 PM,32.0,14.0,48,30.09,10.0,WSW,10.4,-,N/A,,Partly Cloudy,250,2013-01-03 22:51:00
6:51 PM,32.0,14.0,48,30.10,10.0,SW,12.7,18.4,N/A,,Scattered Clouds,220,2013-01-03 23:51:00
7:51 PM,33.1,14.0,46,30.11,10.0,West,11.5,19.6,N/A,,Mostly Cloudy,260,2013-01-04 00:51:00
8:51 PM,33.1,14.0,46,30.09,10.0,West,10.4,20.7,N/A,,Overcast,260,2013-01-04 01:51:00
9:51 PM,33.1,15.1,48,30.09,10.0,West,17.3,23.0,N/A,,Overcast,260,2013-01-04 02:51:00
10:51 PM,34.0,16.0,48,30.08,10.0,West,15.0,23.0,N/A,,Overcast,260,2013-01-04 03:51:00
11:51 PM,34.0,17.1,50,30.06,10.0,West,11.5,21.9,N/A,,Overcast,270,2013-01-04 04:51:00